Location: Newark
(34.1333°N, 7.9667°W)
Time: 00:41:56
(UTC+00:00)

Transit 2A - Pass Details

Date: 17 June 2021
Orbit: 598 x 960 km, 66.7° (Epoch: 31 July)

Event Time Altitude Azimuth Distance (km) Brightness Sun altitude
Rises 04:08:10 0° 313° (NW) 3,158 9.1 -13.0°
Reaches altitude 10° 04:11:05 10° 295° (WNW) 2,301 8.2 -12.6°
Maximum altitude 04:14:41 19° 252° (WSW) 1,844 7.4 -12.0°
Enters shadow 04:16:46 15° 225° (SW) 2,066 7.6 -11.7°
Drops below altitude 10° 04:18:30 10° 210° (SSW) 2,459 - -11.4°
Sets 04:21:46 0° 193° (SSW) 3,458 - -10.9°
